DIERAUER Weather Reports


time (UTC)temp
C
wind
direction
speed
KPH
gust
KPH
rain 1hr
cm
rain 24hr
cm
rain mn
cm
humidity
%
barometer
mb
20260505010505 19 205 11.3 16.1 0.00 0.00 0.00 56 1005.3
20260505010019 19 210 9.7 16.1 0.00 0.00 0.00 56 1005.3
20260505005505 20 211 11.3 19.3 0.00 0.00 0.00 55 1005.2
20260505005004 20 204 12.9 20.9 0.00 0.00 0.00 55 1005.2
20260505004521 20 183 14.5 20.9 0.00 0.00 0.00 55 1005.1
20260505004008 20 209 12.9 22.5 0.00 0.00 0.00 55 1005.2
20260505003506 20 212 14.5 22.5 0.00 0.00 0.00 55 1005.2
20260505003006 20 213 16.1 25.7 0.00 0.00 0.00 55 1005.2
20260505002505 20 227 16.1 25.7 0.00 0.00 0.00 55 1005.3
20260505002004 20 230 16.1 20.9 0.00 0.00 0.00 55 1005.3
20260505001512 20 207 16.1 22.5 0.00 0.00 0.00 55 1005.3
20260505001004 20 213 16.1 24.1 0.00 0.00 0.00 56 1005.2
20260505000504 21 217 14.5 25.7 0.00 0.00 0.00 56 1005.3
20260505000016 21 207 19.3 25.7 0.00 0.00 0.00 56 1005.4
20260504235504 21 206 17.7 25.7 0.00 0.00 0.00 56 1005.3
20260504235008 21 216 14.5 24.1 0.00 0.00 0.00 57 1005.3
20260504234519 21 203 14.5 20.9 0.00 0.00 0.00 57 1005.4
20260504234003 21 190 12.9 20.9 0.00 0.00 0.00 58 1005.3
20260504233507 21 188 12.9 17.7 0.00 0.00 0.00 59 1005.4
20260504233024 21 180 12.9 16.1 0.00 0.00 0.00 58 1005.4
20260504232504 21 200 12.9 16.1 0.00 0.00 0.00 59 1005.4
20260504232004 21 193 12.9 19.3 0.00 0.00 0.00 56 1005.5
20260504231510 21 205 16.1 22.5 0.00 0.00 0.00 56 1005.7
20260504231004 21 208 17.7 27.4 0.00 0.00 0.00 54 1005.7
20260504230504 21 207 14.5 27.4 0.00 0.00 0.00 53 1005.8
20260504230014 21 212 22.5 32.2 0.00 0.00 0.00 52 1005.9
20260504225506 21 202 17.7 32.2 0.00 0.00 0.00 52 1005.9
20260504225009 21 211 16.1 25.7 0.00 0.00 0.00 54 1005.9
20260504224519 21 201 16.1 20.9 0.00 0.00 0.00 53 1005.9
20260504224005 21 207 12.9 19.3 0.00 0.00 0.00 54 1006.0
20260504223509 21 221 12.9 32.2 0.00 0.00 0.00 53 1006.1
20260504223015 21 214 12.9 32.2 0.00 0.00 0.00 53 1006.0
20260504222507 21 226 16.1 32.2 0.00 0.00 0.00 53 1006.0
20260504222012 21 211 19.3 29.0 0.00 0.00 0.00 51 1006.0
20260504221511 22 226 19.3 35.4 0.00 0.00 0.00 50 1006.2
20260504221007 22 199 16.1 35.4 0.00 0.00 0.00 50 1006.4
20260504220506 22 202 20.9 41.8 0.00 0.00 0.00 50 1006.4
20260504220016 22 257 25.7 40.2 0.00 0.00 0.00 50 1006.4
20260504215505 21 229 19.3 33.8 0.00 0.00 0.00 52 1006.4
20260504215004 21 215 22.5 32.2 0.00 0.00 0.00 52 1006.3
20260504214521 21 227 22.5 35.4 0.00 0.00 0.00 52 1006.3
20260504214005 22 253 19.3 35.4 0.00 0.00 0.00 52 1006.3
20260504213506 22 227 22.5 32.2 0.00 0.00 0.00 53 1006.3
20260504213026 21 228 25.7 32.2 0.00 0.00 0.00 53 1006.4
20260504212511 21 240 20.9 33.8 0.00 0.00 0.00 57 1006.4
20260504212007 21 197 25.7 32.2 0.00 0.00 0.00 55 1006.1
20260504211527 21 210 19.3 38.6 0.00 0.00 0.00 55 1006.4
20260504211006 21 226 24.1 38.6 0.00 0.00 0.00 55 1006.8
20260504210503 21 239 22.5 35.4 0.00 0.00 0.00 56 1006.8
20260504210017 21 246 22.5 35.4 0.00 0.00 0.00 56 1006.9
20260504205503 21 252 19.3 30.6 0.00 0.00 0.00 57 1006.9
20260504205003 20 226 22.5 29.0 0.00 0.00 0.00 58 1007.1
20260504204521 20 205 16.1 29.0 0.00 0.00 0.00 63 1007.2
20260504204008 19 226 17.7 29.0 0.00 0.00 0.00 63 1007.2
20260504203510 19 190 14.5 29.0 0.00 0.00 0.00 66 1007.3
20260504203012 18 219 14.5 27.4 0.00 0.00 0.00 68 1007.2
20260504202506 18 200 16.1 22.5 0.00 0.00 0.00 67 1007.2
20260504202006 18 202 16.1 22.5 0.00 0.00 0.00 68 1007.2
20260504201525 18 205 14.5 20.9 0.00 0.00 0.00 69 1007.3
20260504201004 17 216 11.3 20.9 0.00 0.00 0.00 68 1007.0
20260504200508 17 227 14.5 19.3 0.00 0.00 0.00 68 1007.4
20260504200026 17 198 12.9 19.3 0.00 0.00 0.00 70 1007.5
20260504195504 17 240 14.5 20.9 0.00 0.00 0.00 70 1008.0
20260504195007 17 230 16.1 27.4 0.00 0.00 0.00 70 1008.0
20260504194508 17 238 16.1 30.6 0.00 0.00 0.00 69 1008.1
20260504194003 17 246 11.3 38.6 0.00 0.00 0.00 69 1008.6
20260504193508 18 235 22.5 45.1 0.00 0.00 0.00 63 1009.0
20260504193003 18 251 25.7 45.1 0.00 0.00 0.00 61 1009.1
20260504192502 19 232 24.1 38.6 0.00 0.00 0.00 60 1009.0
20260504192003 19 227 24.1 35.4 0.00 0.00 0.00 59 1008.8
20260504191504 20 241 25.7 35.4 0.00 0.00 0.00 59 1008.7
20260504191003 20 234 24.1 40.2 0.00 0.00 0.00 59 1008.6
20260504190506 20 242 20.9 38.6 0.00 0.00 0.00 59 1008.5
20260504190006 20 223 19.3 33.8 0.00 0.00 0.00 59 1008.3
20260504185502 20 211 24.1 37.0 0.00 0.00 0.00 56 1008.0
20260504185006 20 206 22.5 37.0 0.00 0.00 0.00 56 1008.1
20260504184516 20 186 22.5 32.2 0.00 0.00 0.00 56 1008.2
20260504184002 20 232 22.5 37.0 0.00 0.00 0.00 58 1008.0
20260504183503 20 219 25.7 38.6 0.00 0.00 0.00 55 1007.8
20260504183012 21 224 20.9 38.6 0.00 0.00 0.00 55 1007.6
20260504182503 20 217 25.7 37.0 0.00 0.00 0.00 55 1007.8
20260504182003 20 210 22.5 38.6 0.00 0.00 0.00 56 1007.7
20260504181503 20 205 24.1 38.6 0.00 0.00 0.00 58 1007.8
20260504181003 20 207 25.7 35.4 0.00 0.00 0.00 57 1007.8
20260504180503 20 213 17.7 32.2 0.00 0.00 0.00 56 1007.8
20260504180006 20 218 25.7 35.4 0.00 0.00 0.00 55 1007.9
20260504175502 20 218 24.1 35.4 0.00 0.00 0.00 55 1008.0
20260504175003 20 213 24.1 41.8 0.00 0.00 0.00 56 1008.0
20260504174504 20 203 27.4 40.2 0.00 0.00 0.00 58 1008.1
20260504174004 20 207 19.3 35.4 0.00 0.00 0.00 57 1008.1
20260504173504 19 200 27.4 35.4 0.00 0.00 0.00 56 1008.0
20260504173015 19 222 22.5 38.6 0.00 0.00 0.00 57 1008.0
20260504172502 19 207 22.5 38.6 0.00 0.00 0.00 56 1008.1
20260504172003 18 219 19.3 32.2 0.00 0.00 0.00 58 1008.1
20260504171519 18 225 22.5 32.2 0.00 0.00 0.00 58 1008.2
20260504171004 18 219 22.5 35.4 0.00 0.00 0.00 56 1008.2
20260504170502 19 231 25.7 35.4 0.00 0.00 0.00 56 1008.2
20260504151009 16 227 22.5 29.0 0.00 0.00 0.00 64 1008.9
20260504150504 16 211 17.7 29.0 0.00 0.00 0.00 65 1008.8
20260504141002 14 218 25.7 45.1 0.00 0.00 0.00 66 1009.2
20260504140507 14 217 29.0 45.1 0.00 0.00 0.00 66 1009.2
20260504130508 12 194 19.3 32.2 0.00 0.00 0.00 69 1009.6
20260504110507 9 216 14.5 20.9 0.00 0.00 0.00 71 1009.3
20260504100507 8 215 12.9 19.3 0.00 0.00 0.00 70 1009.5
20260504082003 9 196 16.1 20.9 0.00 0.00 0.00 68 1010.2
20260504081507 9 196 16.1 24.1 0.00 0.00 0.00 68 1010.2
20260504081002 9 203 16.1 24.1 0.00 0.00 0.00 68 1010.2
20260504080504 9 207 16.1 22.5 0.00 0.00 0.00 68 1010.2
20260504050505 10 192 14.5 22.5 0.00 0.00 0.00 64 1012.0
20260504050013 11 198 12.9 22.5 0.00 0.00 0.00 63 1012.1
20260504045502 11 198 14.5 20.9 0.00 0.00 0.00 63 1012.1
20260504045002 11 200 14.5 19.3 0.00 0.00 0.00 63 1012.1
20260504044512 11 202 16.1 20.9 0.00 0.00 0.00 62 1012.2
20260504044003 11 200 16.1 20.9 0.00 0.00 0.00 62 1012.2
20260504043504 11 197 16.1 20.9 0.00 0.00 0.00 62 1012.2
20260504043012 11 202 16.1 20.9 0.00 0.00 0.00 62 1012.2
20260504042504 11 217 14.5 20.9 0.00 0.00 0.00 63 1012.3
20260504042004 11 192 14.5 20.9 0.00 0.00 0.00 64 1012.3
20260504041515 11 190 14.5 20.9 0.00 0.00 0.00 65 1012.4
20260504041003 10 199 14.5 17.7 0.00 0.00 0.00 65 1012.4
20260504040504 10 190 14.5 17.7 0.00 0.00 0.00 65 1012.4
20260504040013 10 189 12.9 16.1 0.00 0.00 0.00 66 1012.6
20260504035503 10 195 12.9 16.1 0.00 0.00 0.00 67 1012.6
20260504035005 10 182 12.9 16.1 0.00 0.00 0.00 69 1012.7
20260504034523 10 182 9.7 12.9 0.00 0.00 0.00 70 1012.8
20260504034003 10 184 9.7 12.9 0.00 0.00 0.00 70 1012.8
20260504033506 10 186 9.7 12.9 0.00 0.00 0.00 71 1012.8
20260504033028 10 182 9.7 12.9 0.00 0.00 0.00 72 1012.9
20260504032505 10 176 8.0 12.9 0.00 0.00 0.00 72 1012.9
20260504032005 10 180 8.0 12.9 0.00 0.00 0.00 71 1012.9
20260504031515 10 179 8.0 12.9 0.00 0.00 0.00 69 1012.9
20260504031005 10 161 8.0 14.5 0.00 0.00 0.00 69 1013.0
20260504030507 10 181 9.7 14.5 0.00 0.00 0.00 69 1013.0
20260504030017 10 176 9.7 14.5 0.00 0.00 0.00 71 1013.1
20260504025504 9 165 8.0 11.3 0.00 0.00 0.00 75 1013.3
20260504025004 9 178 6.4 9.7 0.00 0.00 0.00 74 1013.4
20260504024535 10 181 6.4 9.7 0.00 0.00 0.00 75 1013.3
20260504024008 10 163 6.4 9.7 0.00 0.00 0.00 72 1013.3
20260504023504 10 166 4.8 11.3 0.00 0.00 0.00 70 1013.2
20260504023018 10 155 3.2 11.3 0.00 0.00 0.00 70 1013.3
20260504022504 10 140 4.8 11.3 0.00 0.00 0.00 70 1013.3
20260504022007 10 167 4.8 9.7 0.00 0.00 0.00 71 1013.3
20260504021518 10 140 4.8 8.0 0.00 0.00 0.00 71 1013.3
20260504021004 10 147 3.2 6.4 0.00 0.00 0.00 69 1013.3
20260504020506 10 137 3.2 8.0 0.00 0.00 0.00 69 1013.3
20260504020017 10 140 3.2 8.0 0.00 0.00 0.00 69 1013.3
20260504015507 10 117 6.4 11.3 0.00 0.00 0.00 68 1013.2
20260504015005 10 153 4.8 11.3 0.00 0.00 0.00 69 1013.2
20260504014517 10 141 4.8 11.3 0.00 0.00 0.00 69 1013.2
20260504014007 10 135 4.8 11.3 0.00 0.00 0.00 69 1013.3
20260504013502 10 128 4.8 9.7 0.00 0.00 0.00 70 1013.3
20260504013015 10 132 4.8 8.0 0.00 0.00 0.00 71 1013.3
20260504012503 10 135 3.2 8.0 0.00 0.00 0.00 72 1013.4
20260504012003 10 135 4.8 9.7 0.00 0.00 0.00 72 1013.4
20260504011503 10 150 3.2 9.7 0.00 0.00 0.00 71 1013.3
20260504011003 10 132 3.2 6.4 0.00 0.00 0.00 1013.3